Time,TemperatureF,DewpointF,PressureIn,WindDirection,WindDirectionDegrees,WindSpeedMPH,WindSpeedGustMPH,Humidity,HourlyPrecipIn,Conditions,Clouds,dailyrainin,SoftwareType,DateUTC
2013-07-09 00:14:00,63.4,62.0,30.01,WNW,293,0.0,-999.0,96,-99.99,,,0.07,weatherlink.com 1.10,2013-07-09 04:14:00,
2013-07-09 00:29:00,63.2,62.0,30.01,WNW,293,2.0,-999.0,96,-99.99,,,0.07,weatherlink.com 1.10,2013-07-09 04:29:00,
2013-07-09 00:44:00,63.1,62.0,30.00,NW,310,0.0,-999.0,96,-99.99,,,0.07,weatherlink.com 1.10,2013-07-09 04:44:00,
2013-07-09 00:59:00,63.1,62.0,30.01,NW,310,0.0,-999.0,97,-99.99,,,0.07,weatherlink.com 1.10,2013-07-09 04:59:00,
2013-07-09 01:14:00,62.7,62.0,30.00,NW,326,1.0,-999.0,97,-99.99,,,0.07,weatherlink.com 1.10,2013-07-09 05:14:00,
2013-07-09 01:29:00,63.1,62.0,30.00,NW,326,0.0,-999.0,97,-99.99,,,0.07,weatherlink.com 1.10,2013-07-09 05:29:00,
2013-07-09 01:44:00,63.2,62.0,30.01,NW,326,0.0,-999.0,97,-99.99,,,0.07,weatherlink.com 1.10,2013-07-09 05:44:00,
2013-07-09 01:59:00,62.9,62.0,30.01,NW,323,0.0,-999.0,96,-99.99,,,0.07,weatherlink.com 1.10,2013-07-09 05:59:00,
2013-07-09 02:14:00,62.9,62.0,30.01,NW,323,0.0,-999.0,96,-99.99,,,0.07,weatherlink.com 1.10,2013-07-09 06:14:00,
2013-07-09 02:29:00,62.7,61.0,30.01,NW,323,0.0,-999.0,95,-99.99,,,0.07,weatherlink.com 1.10,2013-07-09 06:29:00,
2013-07-09 02:44:00,62.4,61.0,30.01,NW,323,0.0,-999.0,95,-99.99,,,0.07,weatherlink.com 1.10,2013-07-09 06:44:00,
2013-07-09 02:59:00,62.4,61.0,30.01,NW,323,0.0,-999.0,94,-99.99,,,0.07,weatherlink.com 1.10,2013-07-09 06:59:00,
2013-07-09 03:14:00,62.6,61.0,30.00,NW,323,0.0,-999.0,95,-99.99,,,0.07,weatherlink.com 1.10,2013-07-09 07:14:00,
2013-07-09 03:29:00,62.4,61.0,30.00,NW,323,0.0,-999.0,94,-99.99,,,0.07,weatherlink.com 1.10,2013-07-09 07:29:00,
2013-07-09 03:44:00,62.3,61.0,30.00,NW,323,0.0,-999.0,94,-99.99,,,0.07,weatherlink.com 1.10,2013-07-09 07:44:00,
2013-07-09 03:59:00,62.7,61.0,30.00,NW,323,0.0,-999.0,93,-99.99,,,0.07,weatherlink.com 1.10,2013-07-09 07:59:00,
2013-07-09 04:14:00,62.6,60.0,30.00,NW,323,1.0,-999.0,92,-99.99,,,0.07,weatherlink.com 1.10,2013-07-09 08:14:00,
2013-07-09 04:29:00,62.3,60.0,30.00,NNW,332,2.0,-999.0,93,-99.99,,,0.08,weatherlink.com 1.10,2013-07-09 08:29:00,
2013-07-09 04:44:00,62.3,61.0,30.01,NNE,13,0.0,-999.0,94,-99.99,,,0.08,weatherlink.com 1.10,2013-07-09 08:44:00,
2013-07-09 04:59:00,62.0,61.0,30.01,NNE,13,0.0,-999.0,95,-99.99,,,0.08,weatherlink.com 1.10,2013-07-09 08:59:00,
2013-07-09 05:14:00,61.8,61.0,30.01,NNE,13,0.0,-999.0,96,-99.99,,,0.08,weatherlink.com 1.10,2013-07-09 09:14:00,
2013-07-09 05:29:00,61.6,61.0,30.01,NNE,13,0.0,-999.0,96,-99.99,,,0.09,weatherlink.com 1.10,2013-07-09 09:29:00,
2013-07-09 05:44:00,61.5,60.0,30.01,NNE,16,0.0,-999.0,96,-99.99,,,0.09,weatherlink.com 1.10,2013-07-09 09:44:00,
2013-07-09 05:59:00,61.2,60.0,30.02,NE,38,1.0,-999.0,96,-99.99,,,0.09,weatherlink.com 1.10,2013-07-09 09:59:00,
2013-07-09 06:14:00,61.2,60.0,30.03,South,170,0.0,-999.0,97,-99.99,,,0.09,weatherlink.com 1.10,2013-07-09 10:14:00,
2013-07-09 06:29:00,61.3,61.0,30.03,South,170,0.0,-999.0,97,-99.99,,,0.09,weatherlink.com 1.10,2013-07-09 10:29:00,
2013-07-09 06:44:00,61.6,61.0,30.03,South,170,0.0,-999.0,97,-99.99,,,0.10,weatherlink.com 1.10,2013-07-09 10:44:00,
2013-07-09 06:59:00,61.3,61.0,30.04,South,170,0.0,-999.0,97,-99.99,,,0.10,weatherlink.com 1.10,2013-07-09 10:59:00,
2013-07-09 07:14:00,61.8,61.0,30.04,NNW,340,3.0,-999.0,98,-99.99,,,0.10,weatherlink.com 1.10,2013-07-09 11:14:00,
2013-07-09 07:29:00,62.1,61.0,30.05,NNW,340,1.0,-999.0,97,-99.99,,,0.10,weatherlink.com 1.10,2013-07-09 11:29:00,
2013-07-09 07:44:00,62.3,62.0,30.04,NNW,340,0.0,-999.0,97,-99.99,,,0.10,weatherlink.com 1.10,2013-07-09 11:44:00,
2013-07-09 07:59:00,62.6,62.0,30.05,NNW,340,0.0,-999.0,96,-99.99,,,0.10,weatherlink.com 1.10,2013-07-09 11:59:00,
2013-07-09 08:14:00,62.7,62.0,30.05,NNW,340,0.0,-999.0,96,-99.99,,,0.10,weatherlink.com 1.10,2013-07-09 12:14:00,
2013-07-09 08:29:00,62.9,62.0,30.05,NNW,340,0.0,-999.0,95,-99.99,,,0.10,weatherlink.com 1.10,2013-07-09 12:29:00,
2013-07-09 08:44:00,63.2,62.0,30.05,NNW,340,2.0,-999.0,95,-99.99,,,0.10,weatherlink.com 1.10,2013-07-09 12:44:00,
2013-07-09 08:59:00,63.5,62.0,30.05,North,358,4.0,-999.0,94,-99.99,,,0.10,weatherlink.com 1.10,2013-07-09 12:59:00,
2013-07-09 09:14:00,63.9,62.0,30.05,North,6,3.0,-999.0,94,-99.99,,,0.10,weatherlink.com 1.10,2013-07-09 13:14:00,
2013-07-09 09:29:00,64.0,62.0,30.05,North,6,3.0,-999.0,94,-99.99,,,0.10,weatherlink.com 1.10,2013-07-09 13:29:00,
2013-07-09 09:44:00,64.5,63.0,30.05,NNE,13,4.0,-999.0,93,-99.99,,,0.10,weatherlink.com 1.10,2013-07-09 13:44:00,
2013-07-09 09:59:00,64.7,63.0,30.05,NNE,12,3.0,-999.0,93,-99.99,,,0.10,weatherlink.com 1.10,2013-07-09 13:59:00,
2013-07-09 10:14:00,65.0,63.0,30.05,NNE,15,0.0,-999.0,92,-99.99,,,0.10,weatherlink.com 1.10,2013-07-09 14:14:00,
2013-07-09 10:29:00,65.3,62.0,30.05,NE,35,0.0,-999.0,89,-99.99,,,0.10,weatherlink.com 1.10,2013-07-09 14:29:00,
2013-07-09 10:44:00,65.5,61.0,30.05,NE,46,0.0,-999.0,85,-99.99,,,0.10,weatherlink.com 1.10,2013-07-09 14:44:00,
2013-07-09 10:59:00,65.6,61.0,30.06,NE,45,0.0,-999.0,86,-99.99,,,0.10,weatherlink.com 1.10,2013-07-09 14:59:00,
2013-07-09 11:14:00,65.6,61.0,30.05,NE,44,3.0,-999.0,84,-99.99,,,0.10,weatherlink.com 1.10,2013-07-09 15:14:00,
2013-07-09 11:29:00,66.4,61.0,30.05,NE,48,0.0,-999.0,82,-99.99,,,0.10,weatherlink.com 1.10,2013-07-09 15:29:00,
2013-07-09 11:44:00,66.9,61.0,30.05,East,84,0.0,-999.0,80,-99.99,,,0.10,weatherlink.com 1.10,2013-07-09 15:44:00,
2013-07-09 11:59:00,67.1,60.0,30.05,ENE,70,0.0,-999.0,78,-99.99,,,0.10,weatherlink.com 1.10,2013-07-09 15:59:00,
2013-07-09 12:14:00,67.8,61.0,30.05,ENE,58,3.0,-999.0,78,-99.99,,,0.10,weatherlink.com 1.10,2013-07-09 16:14:00,
2013-07-09 12:29:00,67.1,60.0,30.04,NE,51,0.0,-999.0,79,-99.99,,,0.10,weatherlink.com 1.10,2013-07-09 16:29:00,
2013-07-09 12:44:00,66.3,60.0,30.04,NE,51,0.0,-999.0,80,-99.99,,,0.10,weatherlink.com 1.10,2013-07-09 16:44:00,
2013-07-09 12:59:00,67.1,61.0,30.04,NE,51,0.0,-999.0,82,-99.99,,,0.10,weatherlink.com 1.10,2013-07-09 16:59:00,
2013-07-09 13:14:00,66.0,60.0,30.04,ESE,122,3.0,-999.0,82,-99.99,,,0.10,weatherlink.com 1.10,2013-07-09 17:14:00,
2013-07-09 13:29:00,66.0,62.0,30.04,East,97,1.0,-999.0,88,-99.99,,,0.10,weatherlink.com 1.10,2013-07-09 17:29:00,
2013-07-09 13:44:00,66.0,62.0,30.04,SE,136,0.0,-999.0,88,-99.99,,,0.10,weatherlink.com 1.10,2013-07-09 17:44:00,
2013-07-09 13:59:00,64.8,62.0,30.04,ESE,122,6.0,-999.0,90,-99.99,,,0.10,weatherlink.com 1.10,2013-07-09 17:59:00,
2013-07-09 14:14:00,64.3,62.0,30.04,SE,128,1.0,-999.0,92,-99.99,,,0.10,weatherlink.com 1.10,2013-07-09 18:14:00,
2013-07-09 14:29:00,65.0,63.0,30.04,SE,138,0.0,-999.0,93,-99.99,,,0.10,weatherlink.com 1.10,2013-07-09 18:29:00,
2013-07-09 14:44:00,64.7,63.0,30.03,ESE,122,0.0,-999.0,93,-99.99,,,0.10,weatherlink.com 1.10,2013-07-09 18:44:00,
2013-07-09 14:59:00,65.0,63.0,30.03,SE,127,0.0,-999.0,93,-99.99,,,0.10,weatherlink.com 1.10,2013-07-09 18:59:00,
2013-07-09 15:14:00,65.2,63.0,30.03,SE,143,0.0,-999.0,92,-99.99,,,0.10,weatherlink.com 1.10,2013-07-09 19:14:00,
2013-07-09 15:29:00,65.6,63.0,30.02,ESE,122,0.0,-999.0,91,-99.99,,,0.10,weatherlink.com 1.10,2013-07-09 19:29:00,
2013-07-09 15:44:00,66.3,63.0,30.02,East,86,2.0,-999.0,90,-99.99,,,0.10,weatherlink.com 1.10,2013-07-09 19:44:00,
2013-07-09 15:59:00,65.6,63.0,30.02,SE,146,0.0,-999.0,90,-99.99,,,0.10,weatherlink.com 1.10,2013-07-09 19:59:00,
2013-07-09 16:14:00,65.2,63.0,30.02,ESE,120,4.0,-999.0,91,-99.99,,,0.10,weatherlink.com 1.10,2013-07-09 20:14:00,
2013-07-09 16:29:00,65.2,63.0,30.02,NNW,335,0.0,-999.0,91,-99.99,,,0.10,weatherlink.com 1.10,2013-07-09 20:29:00,
2013-07-09 16:44:00,65.0,62.0,30.02,ENE,74,0.0,-999.0,91,-99.99,,,0.10,weatherlink.com 1.10,2013-07-09 20:44:00,
2013-07-09 16:59:00,64.5,62.0,30.03,East,80,2.0,-999.0,92,-99.99,,,0.10,weatherlink.com 1.10,2013-07-09 20:59:00,
2013-07-09 17:14:00,63.9,62.0,30.03,East,96,0.0,-999.0,93,-99.99,,,0.10,weatherlink.com 1.10,2013-07-09 21:14:00,
2013-07-09 17:29:00,63.4,62.0,30.03,SE,124,0.0,-999.0,95,-99.99,,,0.10,weatherlink.com 1.10,2013-07-09 21:29:00,
2013-07-09 17:44:00,63.2,62.0,30.03,NNE,27,2.0,-999.0,95,-99.99,,,0.10,weatherlink.com 1.10,2013-07-09 21:44:00,
2013-07-09 17:59:00,63.2,62.0,30.02,ENE,61,2.0,-999.0,95,-99.99,,,0.10,weatherlink.com 1.10,2013-07-09 21:59:00,
2013-07-09 18:14:00,63.2,62.0,30.03,East,83,0.0,-999.0,95,-99.99,,,0.10,weatherlink.com 1.10,2013-07-09 22:14:00,
2013-07-09 18:29:00,62.9,62.0,30.03,ENE,77,2.0,-999.0,95,-99.99,,,0.10,weatherlink.com 1.10,2013-07-09 22:29:00,
2013-07-09 18:44:00,62.7,62.0,30.03,East,93,0.0,-999.0,96,-99.99,,,0.10,weatherlink.com 1.10,2013-07-09 22:44:00,
2013-07-09 18:59:00,62.7,62.0,30.03,ESE,114,0.0,-999.0,97,-99.99,,,0.10,weatherlink.com 1.10,2013-07-09 22:59:00,
2013-07-09 19:14:00,62.6,62.0,30.02,NE,46,0.0,-999.0,97,-99.99,,,0.10,weatherlink.com 1.10,2013-07-09 23:14:00,
2013-07-09 19:29:00,62.6,62.0,30.02,ENE,75,0.0,-999.0,97,-99.99,,,0.10,weatherlink.com 1.10,2013-07-09 23:29:00,
2013-07-09 19:44:00,62.4,62.0,30.02,ENE,69,0.0,-999.0,97,-99.99,,,0.10,weatherlink.com 1.10,2013-07-09 23:44:00,
2013-07-09 19:59:00,62.3,62.0,30.02,East,79,0.0,-999.0,98,-99.99,,,0.10,weatherlink.com 1.10,2013-07-09 23:59:00,
2013-07-09 20:14:00,62.1,62.0,30.03,East,79,0.0,-999.0,98,-99.99,,,0.10,weatherlink.com 1.10,2013-07-10 00:14:00,
2013-07-09 20:29:00,62.1,62.0,30.02,East,81,0.0,-999.0,98,-99.99,,,0.10,weatherlink.com 1.10,2013-07-10 00:29:00,
2013-07-09 20:44:00,62.1,62.0,30.02,East,81,0.0,-999.0,98,-99.99,,,0.10,weatherlink.com 1.10,2013-07-10 00:44:00,
2013-07-09 20:59:00,62.1,62.0,30.02,East,82,0.0,-999.0,98,-99.99,,,0.10,weatherlink.com 1.10,2013-07-10 00:59:00,
2013-07-09 21:14:00,62.0,62.0,30.02,East,82,2.0,-999.0,98,-99.99,,,0.10,weatherlink.com 1.10,2013-07-10 01:14:00,
2013-07-09 21:29:00,61.8,61.0,30.02,ENE,78,0.0,-999.0,98,-99.99,,,0.10,weatherlink.com 1.10,2013-07-10 01:29:00,
2013-07-09 21:44:00,61.8,62.0,30.02,ENE,59,0.0,-999.0,99,-99.99,,,0.10,weatherlink.com 1.10,2013-07-10 01:44:00,
2013-07-09 21:59:00,61.6,61.0,30.01,ENE,63,0.0,-999.0,99,-99.99,,,0.10,weatherlink.com 1.10,2013-07-10 01:59:00,
2013-07-09 22:14:00,61.5,61.0,30.02,ENE,64,0.0,-999.0,99,-99.99,,,0.10,weatherlink.com 1.10,2013-07-10 02:14:00,
2013-07-09 22:29:00,61.3,61.0,30.02,ENE,66,0.0,-999.0,99,-99.99,,,0.10,weatherlink.com 1.10,2013-07-10 02:29:00,
2013-07-09 22:44:00,61.3,61.0,30.03,ENE,66,0.0,-999.0,99,-99.99,,,0.10,weatherlink.com 1.10,2013-07-10 02:44:00,
2013-07-09 22:59:00,61.3,61.0,30.03,ENE,66,0.0,-999.0,99,-99.99,,,0.10,weatherlink.com 1.10,2013-07-10 02:59:00,
2013-07-09 23:14:00,61.2,61.0,30.03,ENE,67,0.0,-999.0,99,-99.99,,,0.00,weatherlink.com 1.10,2013-07-10 03:14:00,
2013-07-09 23:29:00,61.2,61.0,30.03,ENE,70,0.0,-999.0,99,-99.99,,,0.00,weatherlink.com 1.10,2013-07-10 03:29:00,
2013-07-09 23:44:00,61.2,61.0,30.03,ENE,70,0.0,-999.0,99,-99.99,,,0.00,weatherlink.com 1.10,2013-07-10 03:44:00,
2013-07-09 23:59:00,61.0,61.0,30.02,ENE,71,0.0,-999.0,99,-99.99,,,0.00,weatherlink.com 1.10,2013-07-10 03:59:00,